Regional Weather Roundup
Issued by NWS

Home | Current Version | Previous Version | Graphics & Text | Print | Product List | Glossary On
Versions: 1 2 3 4 5 6 7 8 9 10 11 12 13 14 15 16 17 18 19 20 21 22 23 24 25 26 27 28 29 30 31 32 33 34 35 36 37 38 39 40 41 42 43 44 45 46 47 48 49 50
715
ASUS43 KOAX 260610
RWRNE

WEATHER ROUNDUP FOR NEBRASKA
NATIONAL WEATHER SERVICE OMAHA NE
100 AM CDT THU APR 26 2018

NOTES: SATELLITE DATA IS BEING USED TO AUGMENT CLOUD COVER ABOVE
       12000 FEET.
       "FAIR" INDICATES FEW OR NO CLOUDS BELOW 12,000 FEET WITH NO
       SIGNIFICANT WEATHER AND/OR OBSTRUCTIONS TO VISIBILITY.


NEZ001>004-019>022-054>056-260700-
NEBRASKA PANHANDLE

CITY           SKY/WX    TMP DP  RH WIND       PRES   REMARKS
SCOTTSBLUFF    MOCLDY    52  33  48 NW10      29.94R
6HR MIN TEMP:  46; 6HR MAX TEMP:  71;

ALLIANCE       CLOUDY    38  32  79 S8        29.90S WCI  32
6HR MIN TEMP:  38; 6HR MAX TEMP:  66;

CHADRON        CLOUDY    55  28  35 NE12      29.95R
6HR MIN TEMP:  55; 6HR MAX TEMP:  69;

GORDON         FAIR      52  31  45 NW7       29.93S
6HR MIN TEMP:  48; 6HR MAX TEMP:  65;

KIMBALL        CLEAR     41  25  52 SW9       29.95F
SIDNEY         MOCLDY    42  32  67 S9        29.95F
6HR MIN TEMP:  41; 6HR MAX TEMP:  65;

$$

NEZ057>060-069>072-079>082-260700-
SOUTHWEST NEBRASKA

CITY           SKY/WX    TMP DP  RH WIND       PRES   REMARKS
NORTH PLATTE   CLOUDY    45  32  60 S12       29.95F
6HR MIN TEMP:  44; 6HR MAX TEMP:  61;

IMPERIAL       MOCLDY    45  34  65 S13       29.97F
6HR MIN TEMP:  43; 6HR MAX TEMP:  61;

LEXINGTON      MOCLDY    44  35  71 S7        29.98S
MCCOOK         PTCLDY    43  34  70 S8        29.98F
6HR MIN TEMP:  42; 6HR MAX TEMP:  61;

OGALLALA       CLOUDY    47  35  62 SW6       29.95S
$$

NEZ005>010-023>029-035>040-094-260700-
NORTH CENTRAL NEBRASKA

CITY           SKY/WX    TMP DP  RH WIND       PRES   REMARKS
VALENTINE      CLOUDY    51  31  46 SW10      29.90R
6HR MIN TEMP:  50; 6HR MAX TEMP:  67;

AINSWORTH      CLOUDY    46  33  59 S10       29.90F
BROKEN BOW     CLOUDY    43  34  70 S7        29.96S
6HR MIN TEMP:  42; 6HR MAX TEMP:  59;

O`NEILL        MOCLDY    46  34  64 S8        29.95S
ORD            CLOUDY    41  33  73 S7        29.96S
6HR MIN TEMP:  40; 6HR MAX TEMP:  58;

THEDFORD       CLOUDY    49  31  49 S9        29.92F
$$

NEZ041-046>049-061>064-073>077-083>087-260700-
SOUTH CENTRAL NEBRASKA

CITY           SKY/WX    TMP DP  RH WIND       PRES   REMARKS
GRAND ISLAND   CLOUDY    42  34  73 S9        29.99F
6HR MIN TEMP:  41; 6HR MAX TEMP:  59;

AURORA         CLOUDY    42  34  74 S10       29.99F
HASTINGS       CLOUDY    40  34  79 S6        30.01S
6HR MIN TEMP:  40; 6HR MAX TEMP:  58;

HEBRON         CLOUDY    42  38  86 SW5       30.01F
HOLDREGE       CLOUDY    42  36  79 S8        29.99F
KEARNEY        CLOUDY    43  35  73 S10       29.99F
YORK             N/A     37  37 100 SW7       30.01S WCI  32
$$

NEZ011>018-030>034-042>045-260700-
NORTHEAST NEBRASKA

CITY           SKY/WX    TMP DP  RH WIND       PRES   REMARKS
NORFOLK        CLOUDY    43  33  68 S10       29.97R
6HR MIN TEMP:  43; 6HR MAX TEMP:  59;

ALBION         CLOUDY    42  32  67 CALM      29.98S
BLAIR          CLOUDY    46  35  65 W5        29.98F
COLUMBUS       PTCLDY    46  34  62 S10       29.99F
FREMONT        CLOUDY    49  36  61 SW7       29.99F
TEKAMAH        CLOUDY    39  30  70 SW3       29.97F
6HR MIN TEMP:  38; 6HR MAX TEMP:  61;

WAYNE          MOCLDY    43  33  67 SW5       29.97R
$$

NEZ050>053-065>068-078-088>093-260700-
SOUTHEAST NEBRASKA

CITY           SKY/WX    TMP DP  RH WIND       PRES   REMARKS
LINCOLN        CLOUDY    45  34  65 W7        30.01F
6HR MIN TEMP:  38; 6HR MAX TEMP:  57;

OMAHA EPPLEY   CLOUDY    48  35  60 SE3       29.99S
6HR MIN TEMP:  47; 6HR MAX TEMP:  63;

BEATRICE       CLOUDY    37  34  89 CALM      30.02S
FALLS CITY     CLEAR     40  35  83 CALM      30.00F
6HR MIN TEMP:  40; 6HR MAX TEMP:  54;

NEBRASKA CITY  CLOUDY    42  37  83 W12       30.00S
PLATTSMOUTH    CLOUDY    45  32  61 SW8       30.00S
$$

NEZ044-045-051>053-067-260700-
OMAHA AREA

CITY           SKY/WX    TMP DP  RH WIND       PRES   REMARKS
OMAHA EPPLEY   CLOUDY    48  35  60 SE3       29.99S
6HR MIN TEMP:  47; 6HR MAX TEMP:  63;

BLAIR          CLOUDY    46  35  65 W5        29.98F
FREMONT        CLOUDY    49  36  61 SW7       29.99F
MILLARD        CLOUDY    47  35  61 CALM      29.99F
OFFUTT AFB     CLOUDY    35  33  91 CALM      29.99S
PLATTSMOUTH    CLOUDY    45  32  61 SW8       30.00S
WAHOO          FAIR      46  33  59 W6        29.99F
$$




USA.gov is the U.S. government's official web portal to all federal, state and local government web resources and services.